Flag for U.S.A. Weather past 2 weeks in Unalaska, Alaska, U.S.A.

Now
37 °F

Light rain. Mostly cloudy.


Feels Like: 27 °F
Forecast: 35 / 39 °F
Wind: 18 mph from North

Location: Dutch Harbor

Current Time: Mar 29, 2015 at 10:23:57 AM

Latest Report: Mar 29, 2015 at 9:56 AM


Visibility: 8 mi

Pressure: 29.53 "Hg

Humidity: 86%

Dew point: 33 °F

Location of UnalaskaLocation

Historic Weather in Unalaska — Graph

°F

Unalaska temperature yesterday

Maximum temperature yesterday: 42 °F (at 1:56 PM)
Minimum temperature yesterday: 37 °F (at 3:56 AM)
Average temperature yesterday: 39 °F

Past Weeks' High & Low Weather Summary

 TemperatureHumidityPressure
High43 °F (Mar 17, 8:56 PM)93% (Mar 15, 6:02 AM)29.79 "Hg (Mar 15, 6:02 AM)
Low35 °F (Mar 14, 9:56 AM)67% (Mar 17, 1:56 AM)28.75 "Hg (Mar 15, 2:59 AM)
Average39 °F84%29.28 "Hg
* Reported Mar 14 8:56 AM — Mar 29 8:56 AM, Unalaska, Weather by CustomWeather, © 2015

Note: Actual official high and low records may vary slightly from our data, if they occured in-between our weather recording intervals... More about our weather records

Advertising

Unalaska weather history for previous 24 hours

 ConditionsComfort  
Time TempWeatherWind HumidityBarometerVisibility
8:56 AM
Sun, Mar 29
37 °FOvercast.20 mph82%29.51 "Hg10 mi
7:56 AM37 °FOvercast.20 mph86%29.49 "Hg10 mi
6:56 AM38 °FLight rain. Overcast.18 mph83%29.49 "Hg10 mi
5:56 AM38 °FLight rain. Overcast.23 mph86%29.46 "Hg10 mi
4:56 AM38 °FLight rain. Overcast.16 mph86%29.45 "Hg10 mi
3:56 AM38 °FLight rain. Overcast.8 mph90%29.44 "Hg8 mi
2:56 AM39 °FLight rain. Fog.5 mph86%29.41 "Hg5 mi
1:56 AM39 °FLight rain. Fog.10 mph86%29.40 "Hg5 mi
12:56 AM39 °FLight rain. Overcast.8 mph86%29.39 "Hg10 mi
11:56 PM
Sat, Mar 28
40 °FLight rain. Overcast.9 mph83%29.38 "Hg10 mi
10:56 PM39 °FLight rain. Fog.8 mph89%29.36 "Hg4 mi
9:56 PM39 °FLight rain. Fog.9 mph89%29.34 "Hg6 mi
8:56 PM40 °FLight rain. Overcast.7 mph83%29.33 "Hg10 mi
7:56 PM40 °FLight rain. Overcast.10 mph83%29.31 "Hg7 mi
6:56 PM40 °FLight rain. Overcast.14 mph83%29.28 "Hg7 mi
5:56 PM40 °FLight rain. Fog.12 mph86%29.28 "Hg6 mi
5:04 PM39 °FLight rain. Fog.6 mph87%29.26 "Hg6 mi
4:56 PM40 °FLight rain. Overcast.No wind86%29.28 "Hg6 mi
3:56 PM39 °FLight rain. Fog.14 mph89%29.28 "Hg5 mi
2:56 PM41 °FCloudy.12 mph74%29.27 "Hg10 mi
1:56 PM42 °FBroken clouds.9 mph68%29.26 "Hg10 mi
12:56 PM40 °FMore clouds than sun.9 mph80%29.27 "Hg10 mi
11:56 AM38 °FLight rain. Fog.7 mph86%29.26 "Hg6 mi
10:56 AM38 °FMostly cloudy.5 mph83%29.24 "Hg10 mi
Weather by CustomWeather, © 2015

See weather overviewHow to use our weather pages